Regional Weather Roundup
Issued by NWS

Home | Current Version | Previous Version | Graphics & Text | Print | Product List | Glossary On
Versions: 1 2 3 4 5 6 7 8 9 10 11 12 13 14 15 16 17 18 19 20 21 22 23 24 25 26 27 28 29 30 31 32 33 34 35 36 37 38 39 40 41 42 43 44 45 46 47 48 49 50
000
ASUS43 KOAX 270210
RWRNE

WEATHER ROUNDUP FOR NEBRASKA
NATIONAL WEATHER SERVICE OMAHA NE
900 PM CDT SAT MAY 26 2018

NOTES: SATELLITE DATA IS BEING USED TO AUGMENT CLOUD COVER ABOVE
       12000 FEET.
       "FAIR" INDICATES FEW OR NO CLOUDS BELOW 12,000 FEET WITH NO
       SIGNIFICANT WEATHER AND/OR OBSTRUCTIONS TO VISIBILITY.


NEZ001>004-019>022-054>056-270300-
NEBRASKA PANHANDLE

CITY           SKY/WX    TMP DP  RH WIND       PRES   REMARKS
SCOTTSBLUFF    CLOUDY    82  52  35 SE10      29.72S
ALLIANCE       MOCLDY    79  50  36 SE17      29.75R
CHADRON        PTCLDY    82  52  35 SE15      29.69S
GORDON         FAIR      80  54  40 SE9       29.76R
KIMBALL        CLOUDY    74  48  39 SE12      29.81R
SIDNEY         CLOUDY    77  47  34 SE13      29.80S
$$

NEZ057>060-069>072-079>082-270300-
SOUTHWEST NEBRASKA

CITY           SKY/WX    TMP DP  RH WIND       PRES   REMARKS
NORTH PLATTE   MOCLDY    76  59  55 SE7       29.78S
IMPERIAL       MOCLDY    84  44  24 S17       29.79R
LEXINGTON      MOCLDY    81  57  43 SE8       29.79S
MCCOOK         MOCLDY    83  51  33 S13G21    29.78R
OGALLALA       MOCLDY    84  47  27 SE12      29.77S
$$

NEZ005>010-023>029-035>040-094-270300-
NORTH CENTRAL NEBRASKA

CITY           SKY/WX    TMP DP  RH WIND       PRES   REMARKS
VALENTINE      PTCLDY    84  64  50 SE10      29.75S
AINSWORTH      PTCLDY    81  64  56 SE9       29.78S
BROKEN BOW     PTCLDY    79  65  62 SE8       29.79S
O`NEILL        CLEAR     87  64  46 SE5       29.78S
ORD            CLEAR     80  64  58 S5        29.77R
THEDFORD       MOCLDY    80  64  57 SE8       29.80R
$$

NEZ041-046>049-061>064-073>077-083>087-270300-
SOUTH CENTRAL NEBRASKA

CITY           SKY/WX    TMP DP  RH WIND       PRES   REMARKS
GRAND ISLAND   CLEAR     86  57  37 SW7       29.78R
AURORA         CLEAR     85  54  34 SW7       29.78R
HASTINGS       CLEAR     87  57  35 S6        29.80R
HEBRON         CLEAR     88  58  36 SW8       29.78R
HOLDREGE       CLOUDY    82  56  41 SE9       29.80S
KEARNEY        PTCLDY    83  58  42 S8        29.80R
YORK           CLEAR     90  57  33 SW3       29.76R
$$

NEZ011>018-030>034-042>045-270300-
NORTHEAST NEBRASKA

CITY           SKY/WX    TMP DP  RH WIND       PRES   REMARKS
NORFOLK        CLEAR     80  62  54 SE5       29.73R
ALBION         CLEAR     81  66  59 CALM      29.77R
BLAIR          CLEAR     86  59  40 E6        29.76S
COLUMBUS       CLEAR     90  59  35 SE5       29.75R
FREMONT        CLEAR     90  57  32 E6        29.75R
TEKAMAH        CLEAR     86  58  38 E7        29.74R
WAYNE          CLEAR     83  56  39 E9        29.75R
$$

NEZ050>053-065>068-078-088>093-270300-
SOUTHEAST NEBRASKA

CITY           SKY/WX    TMP DP  RH WIND       PRES   REMARKS
LINCOLN        CLEAR     87  61  41 S7        29.75R
OMAHA EPPLEY   PTCLDY    87  67  51 CALM      29.74R HX  90
BEATRICE       CLOUDY    89  61  39 SW5       29.76R
FALLS CITY     PTCLDY    89  58  34 S6        29.73R
NEBRASKA CITY  CLEAR     89  59  36 CALM      29.75S
PLATTSMOUTH    CLEAR     89  57  33 E3        29.75S
$$

NEZ044-045-051>053-067-270300-
OMAHA AREA

CITY           SKY/WX    TMP DP  RH WIND       PRES   REMARKS
OMAHA EPPLEY   PTCLDY    87  67  51 CALM      29.74R HX  90
BLAIR          CLEAR     86  59  40 E6        29.76S
FREMONT        CLEAR     90  57  32 E6        29.75R
MILLARD        CLEAR     85  66  52 CALM      29.74S
OFFUTT AFB     CLEAR     78  66  65 NE3       29.73S
PLATTSMOUTH    CLEAR     89  57  33 E3        29.75S
WAHOO          FAIR      85  55  34 E7        29.75R
$$




USA.gov is the U.S. government's official web portal to all federal, state and local government web resources and services.